Terminal Aerodrome Forecast
Issued by NWS Mt. Holly, NJ

Home | Current Version | Previous Version | Text Only | Print | Product List | Glossary On
Versions: 1 2 3 4 5 6 7 8 9 10 11 12 13 14 15 16 17 18 19 20 21 22 23
000
FTUS41 KPHI 190100 AAA
TAFRDG
TAF AMD
KRDG 190132Z 1902/1924 30008KT P6SM BKN035
      TEMPO 1902/1906 BKN025
     FM191400 31012G19KT P6SM BKN040
     FM192200 31007KT P6SM SCT040=

USA.gov is the U.S. government's official web portal to all federal, state and local government web resources and services.